Weather History for Meadville, PA

Change the Weather History Date:

Friday, March 15, 2013

  Actual Average Record
Temperature  
Mean Temperature 31 °F -  
Max Temperature 37 °F 45 °F 79 °F (1990)
Min Temperature 25 °F 24 °F -5 °F (1993)
Degree Days  
Heating Degree Days 34    
Moisture  
Dew Point 27 °F    
Average Humidity 81    
Maximum Humidity 93    
Minimum Humidity 69    
Precipitation  
Precipitation 0.00 in - - ()
Sea Level Pressure  
Sea Level Pressure 29.89 in    
Wind  
Wind Speed 6 mph (West)    
Max Wind Speed 14 mph    
Max Gust Speed 18 mph    
Visibility 4 miles    
Events Fog , Snow    
Averages and records for this station are not official NWS values.
T = Trace of Precipitation, MM = Missing Value Source: NWS Daily Summary

Daily Weather History Graph

Daily Weather History Graph

Search for Another Location

Airport:

Trip Planner

Search our weather history database for the weather conditions in past years. The results will help you decide how hot, cold, wet, or windy it might be!

Date:

Astronomy

Mar. 15, 2013 Rise Set
Actual Time 7:32 AM EDT 7:27 PM EDT
Civil Twilight 7:04 AM EDT 7:55 PM EDT
Nautical Twilight 6:32 AM EDT 8:27 PM EDT
Astronomical Twilight 5:59 AM EDT 9:00 PM EDT
Moon 9:18 AM EDT (3/15) 11:44 PM EDT (3/15)
Length of Visible Light 12h 50m
Length of Day
11h 55m
Waxing Crescent, 15% of the Moon is Illuminated
Mar 15
Waxing Crescent
Mar 19
First Quarter
Mar 27
Full
Apr 3
Last Quarter
Apr 10
New

Hourly Weather History & Observations

Time (EDT) Temp. Windchill Dew Point Humidity Pressure Visibility Wind Dir Wind Speed Gust Speed Precip Events Conditions
12:53 AM 25.0 °F 18.1 °F 16.0 °F 69% 30.09 in 10.0 mi South 5.8 mph - N/A   Clear
1:53 AM 25.0 °F 17.1 °F 17.1 °F 72% 30.08 in 10.0 mi SSW 6.9 mph - N/A   Scattered Clouds
2:53 AM 27.0 °F 21.6 °F 18.0 °F 69% 30.06 in 10.0 mi SW 4.6 mph - N/A   Clear
3:53 AM 27.0 °F 20.5 °F 19.0 °F 72% 30.03 in 10.0 mi SSW 5.8 mph - N/A   Clear
4:53 AM 27.0 °F 20.5 °F 19.9 °F 75% 30.01 in 10.0 mi SW 5.8 mph - N/A   Clear
5:53 AM 28.0 °F 22.8 °F 21.0 °F 75% 29.98 in 10.0 mi SSW 4.6 mph - N/A   Overcast
6:53 AM 30.0 °F 22.4 °F 21.0 °F 69% 29.97 in 10.0 mi SW 8.1 mph - N/A   Overcast
7:53 AM 30.0 °F 23.2 °F 21.0 °F 69% 29.96 in 10.0 mi SW 6.9 mph - N/A   Overcast
8:53 AM 30.9 °F 23.5 °F 21.9 °F 69% 29.94 in 9.0 mi SW 8.1 mph 16.1 mph N/A   Overcast
9:53 AM 33.1 °F 26.9 °F 24.1 °F 70% 29.92 in 9.0 mi SW 6.9 mph 16.1 mph N/A   Overcast
10:53 AM 34.0 °F 25.5 °F 26.1 °F 73% 29.92 in 8.0 mi WSW 11.5 mph 18.4 mph N/A   Mostly Cloudy
11:53 AM 35.1 °F 26.9 °F 27.0 °F 72% 29.90 in 8.0 mi WSW 11.5 mph 18.4 mph N/A   Overcast
12:53 PM 36.0 °F 27.1 °F 27.0 °F 70% 29.88 in 6.0 mi WSW 13.8 mph - N/A   Haze
1:53 PM 37.0 °F 29.3 °F 28.0 °F 70% 29.88 in 5.0 mi WNW 11.5 mph - N/A   Haze
2:53 PM 36.0 °F 30.3 °F 30.9 °F 82% 29.86 in 3.0 mi West 6.9 mph - N/A   Haze
3:16 PM 35.6 °F 29.9 °F 30.2 °F 81% 29.82 in 2.5 mi WNW 6.9 mph - N/A   Haze
3:23 PM 35.6 °F 29.2 °F 30.2 °F 81% 29.82 in 3.0 mi West 8.1 mph - N/A   Haze
3:32 PM 35.6 °F 31.7 °F 30.2 °F 81% 29.82 in 2.0 mi WNW 4.6 mph - 0.00 in Snow Light Snow
3:39 PM 35.6 °F 30.7 °F 30.2 °F 81% 29.82 in 1.8 mi West 5.8 mph - 0.00 in Snow Light Snow
3:46 PM 35.6 °F 29.9 °F 30.2 °F 81% 29.81 in 3.0 mi West 6.9 mph - 0.00 in   Haze
3:53 PM 36.0 °F 31.1 °F 30.9 °F 82% 29.86 in 4.0 mi WNW 5.8 mph - 0.00 in   Haze
4:53 PM 37.0 °F 30.4 °F 30.0 °F 76% 29.85 in 5.0 mi West 9.2 mph - N/A   Haze
5:53 PM 36.0 °F 31.1 °F 30.0 °F 79% 29.86 in 2.5 mi NW 5.8 mph - 0.00 in Snow Light Snow
6:06 PM 35.6 °F 28.6 °F 30.2 °F 81% 29.82 in 1.5 mi WNW 9.2 mph - 0.00 in Snow Light Snow
6:21 PM 33.8 °F 26.4 °F 30.2 °F 87% 29.82 in 1.2 mi WNW 9.2 mph - 0.00 in Snow Light Snow
6:53 PM 34.0 °F 28.8 °F 30.0 °F 85% 29.88 in 0.8 mi NW 5.8 mph - 0.00 in Snow Light Snow
7:09 PM 33.8 °F 28.6 °F 30.2 °F 87% 29.84 in 0.5 mi NNW 5.8 mph - 0.00 in Fog , Snow Light Snow
7:39 PM 32.0 °F 27.5 °F 30.2 °F 93% 29.85 in 1.0 mi NW 4.6 mph - 0.00 in Snow Light Snow
7:53 PM 32.0 °F 27.5 °F 30.0 °F 92% 29.89 in 0.8 mi Variable 4.6 mph - 0.00 in Snow Light Snow
8:36 PM 32.0 °F 27.5 °F 30.2 °F 93% 29.85 in 0.8 mi WNW 4.6 mph - 0.00 in Snow Light Snow
8:49 PM 32.0 °F - 30.2 °F 93% 29.85 in 0.5 mi Calm Calm - 0.00 in Fog , Snow Light Snow
8:53 PM 32.0 °F 28.7 °F 30.0 °F 92% 29.89 in 0.5 mi NW 3.5 mph - 0.00 in Fog , Snow Light Snow
9:28 PM 32.0 °F 28.7 °F 30.2 °F 93% 29.85 in 1.0 mi WNW 3.5 mph - 0.00 in Snow Light Snow
9:49 PM 32.0 °F 28.7 °F 30.2 °F 93% 29.85 in 0.8 mi NNW 3.5 mph - 0.00 in Snow Light Snow
9:53 PM 32.0 °F 28.7 °F 30.0 °F 92% 29.89 in 1.0 mi NNW 3.5 mph - 0.00 in Snow Light Snow
10:05 PM 32.0 °F 28.7 °F 30.2 °F 93% 29.85 in 0.8 mi NW 3.5 mph - 0.00 in Snow Light Snow
10:50 PM 32.0 °F - 30.2 °F 93% 29.85 in 1.0 mi Calm Calm - 0.00 in Snow Light Snow
10:53 PM 32.0 °F - 30.0 °F 92% 29.89 in 1.2 mi Calm Calm - 0.00 in Snow Light Snow
11:09 PM 32.0 °F - 28.4 °F 87% 29.85 in 1.5 mi Calm Calm - 0.00 in Snow Light Snow
11:53 PM 30.9 °F 27.5 °F 28.9 °F 92% 29.88 in 1.8 mi NNE 3.5 mph - 0.00 in Snow Light Snow